Погода в Большой Усе

Россия / Пермский край     56°44′16″N   55°05′58″E
темп.,
°C
ветер,
м/с
пор.,
м/с
влажн.,
%
обл.,
%
осадки,
мм/ч
давл.,
гПа
погр.,
м
28 июля, ср
ср2823:00+11ссз49757 0.0 1013193
02:00+9ссв22775 0.0 101412
05:00+7сз34885 0.0 101456
08:00+11зсз466549 0.0 1014268
11:00+15сз695491 0.0 10141686
14:00+17сз6844100 0.0 10132140
17:00+16сз595199 0.0 10131921
20:00+15сз475522 0.0 1013549
29 июля, чт
чт2923:00+9ссз11785 0.0 101410
02:00+9юз1182100 0.0 101310
05:00+8юз33905 0.0 101239
08:00+13зюз496869 0.0 1011256
11:00+20зюз69450 0.0 1010954
14:00+24з6103551 0.0 10082567
17:00+21з6949100 0.0 1008963
20:00+18юз6117768 0.1 1007382
30 июля, пт
пт3023:00+14зюз41291100 0.3 1007282
02:00+13ююз24955 0.0 100678
05:00+13ю3999100 1.4 1004365
08:00+14ю4898100 0.7 1003386
11:00+15зюз2597100 0.7 1002361
14:00+18з468538 0.1 1003672
17:00+20з58745 0.6 1003807
20:00+20зюз48784 0.6 1004245
31 июля, сб
сб3123:00+17з3788100 0.6 1004125
02:00+16зюз2290100 0.0 100521
05:00+15юз2292100 0.0 100511
08:00+18юз4890100 0.0 1006319
11:00+19юз5784100 0.2 1006546
14:00+19ююз578999 0.5 1006575
17:00+22ююз477775 0.8 1004859
20:00+21зюз48892 1.6 1003491
1 августа, вс
вс123:00+18з310975 1.6 1004304
02:00+16зюз369819 0.0 1005135
05:00+15зюз37953 0.0 1006126
08:00+17з37886 0.0 1007221
11:00+22з58597 0.0 1008755
14:00+25з6944100 0.0 10082263
17:00+25з674182 0.0 10092119
20:00+22з366137 0.0 1009148